Regional Weather Roundup
Issued by NWS Huntsville, AL

Home | Current Version | Previous Version | Text Only | Print | Product List | Glossary On
Versions: 1 2 3 4 5 6 7 8 9 10 11 12 13 14 15 16 17 18 19 20 21 22 23 24 25 26 27 28 29 30 31 32 33 34 35 36 37 38 39 40 41 42 43 44 45 46 47 48 49 50
000
ASUS44 KHUN 261710
RWRHUN

WEATHER ROUNDUP FOR THE TENNESSEE VALLEY
NATIONAL WEATHER SERVICE HUNTSVILLE AL
1200 PM CDT WED JUL 26 2017

ALZ001>004-261800-
NORTHWEST ALABAMA

CITY           SKY/WX    TMP DP  RH WIND       PRES   REMARKS
COURTLAND HCN    N/A     90 N/A N/A N3          N/A
RUSSELLVILLE     N/A     88 N/A N/A MISG        N/A
SHOALS AIRPORT MOSUNNY   91  73  55 VRB3      30.13F HX  99
SHOALS TVA RES   N/A     90 N/A N/A MISG        N/A
$$

ALZ005>007-016-261800-
NORTH CENTRAL ALABAMA

CITY           SKY/WX    TMP DP  RH WIND       PRES   REMARKS
CULLMAN AG STN   N/A     88 N/A N/A NW6         N/A
DECATUR AP     PTSUNNY   90  78  68 W8        30.12F HX 104
HUNTSVILLE AP  MOSUNNY   93  76  57 VRB6      30.12F HX 105
MERIDIANVILLE  SUNNY     88  73  62 E3        30.13F HX  96
REDSTONE ARSN  SUNNY     89  75  63 W6        30.11F HX  99
VINEMONT AP    FAIR      92  74  55 W5        30.16F HX 102
$$

ALZ008>010-261800-
NORTHEAST ALABAMA

CITY           SKY/WX    TMP DP  RH WIND       PRES   REMARKS
ALBERTVILLE    SUNNY     88  81  79 N8        30.14F HX 105
FORT PAYNE     MOSUNNY   88  68  51 CALM      30.13F HX  91
SCOTTSBORO HCN   N/A     86 N/A N/A MISG        N/A
VALLEY HEAD      N/A     86 N/A N/A MISG        N/A
$$

TNZ076-096-097-261800-
SOUTHEASTERN MIDDLE TENNESSEE

CITY           SKY/WX    TMP DP  RH WIND       PRES   REMARKS
TULLAHOMA      PTSUNNY   88  70  55 N5        30.16S HX  92
WINCHESTER     MOSUNNY   90  73  58 W3        30.14F HX  98
$$

...SURROUNDING SITES...

CITY           SKY/WX    TMP DP  RH WIND       PRES   REMARKS
ATLANTA        MOSUNNY   90  68  48 NE6       30.13S HX  94
ANNISTON       SUNNY     90  75  61 CALM      30.12F HX 100
BIRMINGHAM     PTSUNNY   89  74  60 N9        30.14F HX  98
CHATTANOOGA    MOSUNNY   90  68  48 W5        30.13F HX  94
CORINTH        FAIR      90  73  58 CALM      30.10F HX  98
DALTON         NOT AVBL
GADSDEN        MOSUNNY   92  76  59 VRB6      30.12F HX 104
GOLDEN TRNGL   SUNNY     91  72  52 CALM      30.08F HX  98
JACKSON TN     SUNNY     92  75  57 W6        30.10F HX 103
MEMPHIS        MOSUNNY   93  75  55 W7        30.11S HX 104
NASHVILLE      PTSUNNY   91  71  51 SW6       30.11F HX  97
OXFORD MS      FAIR      90  72  55 W3        30.13F HX  96
ROME           SUNNY     92  74  55 VRB3      30.12S HX 101
SAVANNAH       MOSUNNY   91  75  59 CALM      30.10S HX 102
SELMER         SUNNY     91  75  59 W6        30.10F HX 102
TUPELO         SUNNY     93  71  48 CALM      30.11F HX 100
TUSCALOOSA     MOSUNNY   89  78  70 NW9       30.12S HX 103
$$

...GULF COAST WEATHER...

CITY           SKY/WX    TMP DP  RH WIND       PRES   REMARKS
GULFPORT       MOSUNNY   90  75  61 NE10      30.10F HX 100
PASCAGOULA     MOSUNNY   91  74  57 NE7       30.10F HX 100
MOBILE         PTSUNNY   89  74  60 NE7       30.12F HX  98
GULF SHORES    MOSUNNY   87  77  72 N3        30.10F HX  98
PENSACOLA      PTSUNNY   87  74  64 VRB3      30.09F HX  95
DESTIN         SUNNY     91  75  59 N5        30.09F HX 101
PANAMA CITY    MOSUNNY   87  74  63 W3        30.09F HX  95
APPALACHICOLA  MOSUNNY   88  79  74 S8        30.08F HX 103
$$




USA.gov is the U.S. government's official web portal to all federal, state and local government web resources and services.